Location: *
(46.0770°N, 1.6444°E)
Time: 06:44:17
(UTC+00:00)

ASTEX 1 - Pass Details

Date: 16 September 2019
Orbit: 719 x 744 km, 92.7° (Epoch: 15 October)

Event Time Altitude Azimuth Distance (km) Brightness Sun altitude
Rises 18:51:44 0° 12° (NNE) 3,146 6.7 -9.1°
Reaches altitude 10° 18:54:10 10° 20° (NNE) 2,219 5.8 -9.5°
Maximum altitude 18:58:46 40° 90° (E) 1,064 3.8 -10.3°
Drops below altitude 10° 19:03:20 10° 159° (SSE) 2,201 5.5 -11.0°
Sets 19:05:44 0° 167° (SSE) 3,118 6.4 -11.4°
